Tracking 19280 objects as of 14-Nov-2018
HD Live streaming from Space Station
objects crossing your sky now

COSMOS 1136

Track COSMOS 1136 now!
10-day predictions
COSMOS 1136 is classified as:


NORAD ID: 11544
Int'l Code: 1979-084G
Perigee: 1,479.3 km
Apogee: 1,503.7 km
Inclination: 74.0 °
Period: 115.6 minutes
Semi major axis: 7862 km
RCS: 0.6827 m2 (medium)
Launch date: September 25, 1979
Source: Commonwealth of Independent States (former USSR) (CIS)
Launch site: PLESETSK MISSILE AND SPACE COMPLEX (PKMTR)
aabbcc
Your satellite tracking list
Your tracking list is empty




NASA's NSSDC Master Catalog

Two Line Element Set (TLE):
1 11544U 79084G   18318.18234497 -.00000008  00000-0  56261-4 0  9995
2 11544  74.0250 216.6477 0015482 167.8056 346.6853 12.45267853779293
Source of the keplerian elements: AFSPC